When you browse on this site, cookies collect data to enhance your experience and personalize the content and advertising you see.
Visit our Privacy Policy to learn more. By continuing to use the site, you agree to this use of cookies and data.
  • In France
  • List of Countries
  • For 7 days
  • Water Temperature
  • Weather Map
  • Weather Widgets
  • user-avatar
    Login

    Hourly Weather Apatzingan de la Constitucion

    Today, 22 September, Sunday

    Time Temperature Precipitation Wind Pressure Humidity
    00:00 +23°C° 1.4 mm 0 mps 732 mmHg 92%
    01:00 +23°C° 1.4 mm 0 mps 732 mmHg 92%
    02:00 +23°C° 1.4 mm 0 mps 732 mmHg 93%
    03:00 +23°C° 1 mm 0 mps 732 mmHg 93%
    04:00 +23°C° 1 mm 0 mps 732 mmHg 93%
    05:00 +22°C° 1 mm 0 mps 732 mmHg 93%
    06:00 +24°C° 0 mm 0 mps 732 mmHg 90%
    07:00 +25°C° 0 mm 0 mps 733 mmHg 88%
    08:00 +26°C° 0 mm 0 mps 733 mmHg 86%
    09:00 +29°C° 0.1 mm 1 mps 733 mmHg 81%
    10:00 +31°C° 0.1 mm 1 mps 733 mmHg 76%
    11:00 +33°C° 0.1 mm 1 mps 732 mmHg 70%
    12:00 +33°C° 0.3 mm 1 mps 732 mmHg 68%
    13:00 +32°C° 0.3 mm 0 mps 731 mmHg 66%
    14:00 +32°C° 0.3 mm 0 mps 731 mmHg 65%
    15:00 +31°C° 0.7 mm 0 mps 730 mmHg 69%
    16:00 +30°C° 0.7 mm 0 mps 730 mmHg 74%
    17:00 +29°C° 0.7 mm 0 mps 730 mmHg 79%
    18:00 +28°C° 0.6 mm 0 mps 731 mmHg 81%
    19:00 +28°C° 0.6 mm 1 mps 731 mmHg 83%
    20:00 +27°C° 0.6 mm 1 mps 732 mmHg 85%
    21:00 +27°C° 0.7 mm 1 mps 732 mmHg 88%
    22:00 +26°C° 0.7 mm 1 mps 732 mmHg 90%
    23:00 +23°C° 0.7 mm 0 mps 732 mmHg 93%

    Tomorrow, 23 September, Monday

    Time Temperature Precipitation Wind Pressure Humidity
    00:00 +23°C° 1.3 mm 0 mps 732 mmHg 94%
    01:00 +23°C° 1.3 mm 0 mps 732 mmHg 94%
    02:00 +23°C° 1.3 mm 0 mps 732 mmHg 95%
    03:00 +23°C° 0.5 mm 0 mps 732 mmHg 95%
    04:00 +23°C° 0.5 mm 0 mps 732 mmHg 95%
    05:00 +23°C° 0.5 mm 0 mps 732 mmHg 96%
    06:00 +24°C° 0.2 mm 0 mps 732 mmHg 94%
    07:00 +24°C° 0.2 mm 0 mps 733 mmHg 92%
    08:00 +25°C° 0.2 mm 0 mps 733 mmHg 90%
    09:00 +27°C° 0 mm 0 mps 733 mmHg 84%
    10:00 +29°C° 0 mm 0 mps 733 mmHg 77%
    11:00 +31°C° 0 mm 0 mps 732 mmHg 71%
    12:00 +33°C° 0.1 mm 1 mps 732 mmHg 70%
    13:00 +33°C° 0.1 mm 1 mps 731 mmHg 68%
    14:00 +33°C° 0.1 mm 1 mps 730 mmHg 67%
    15:00 +32°C° 0.3 mm 1 mps 730 mmHg 71%
    16:00 +32°C° 0.3 mm 1 mps 730 mmHg 76%
    17:00 +31°C° 0.3 mm 1 mps 730 mmHg 80%
    18:00 +29°C° 0.4 mm 1 mps 730 mmHg 82%
    19:00 +28°C° 0.4 mm 1 mps 731 mmHg 84%
    20:00 +27°C° 0.4 mm 1 mps 731 mmHg 86%
    21:00 +27°C° 0.9 mm 1 mps 731 mmHg 88%
    22:00 +26°C° 0.9 mm 1 mps 732 mmHg 90%
    23:00 +26°C° 0.9 mm 1 mps 732 mmHg 92%

    Day after tomorrow, 24 September, Tuesday

    Time Temperature Precipitation Wind Pressure Humidity
    00:00 +25°C° 0.7 mm 1 mps 731 mmHg 93%
    01:00 +23°C° 0.7 mm 0 mps 731 mmHg 93%
    02:00 +23°C° 0.7 mm 0 mps 731 mmHg 93%
    03:00 +23°C° 0.3 mm 0 mps 731 mmHg 93%
    04:00 +23°C° 0.3 mm 0 mps 731 mmHg 93%
    05:00 +23°C° 0.3 mm 0 mps 731 mmHg 92%
    06:00 +24°C° 0 mm 0 mps 732 mmHg 91%
    07:00 +25°C° 0 mm 0 mps 732 mmHg 89%
    08:00 +26°C° 0 mm 0 mps 732 mmHg 87%
    09:00 +27°C° 0.2 mm 0 mps 732 mmHg 82%
    10:00 +31°C° 0.2 mm 1 mps 732 mmHg 77%
    11:00 +32°C° 0.2 mm 1 mps 731 mmHg 73%
    12:00 +33°C° 0.2 mm 1 mps 731 mmHg 71%
    13:00 +31°C° 0.2 mm 0 mps 730 mmHg 70%
    14:00 +31°C° 0.2 mm 0 mps 729 mmHg 68%
    15:00 +30°C° 0.1 mm 0 mps 729 mmHg 72%
    16:00 +29°C° 0.1 mm 0 mps 729 mmHg 76%
    17:00 +28°C° 0.1 mm 0 mps 729 mmHg 80%
    18:00 +29°C° 0.3 mm 1 mps 730 mmHg 82%
    19:00 +28°C° 0.3 mm 1 mps 730 mmHg 85%
    20:00 +27°C° 0.3 mm 1 mps 731 mmHg 87%
    21:00 +27°C° 1.2 mm 1 mps 731 mmHg 89%
    22:00 +26°C° 1.2 mm 1 mps 731 mmHg 91%
    23:00 +26°C° 1.2 mm 1 mps 731 mmHg 94%

    25 September, Wednesday

    Time Temperature Precipitation Wind Pressure Humidity
    00:00 +25°C° 2 mm 1 mps 731 mmHg 94%
    01:00 +25°C° 2 mm 1 mps 731 mmHg 95%
    02:00 +25°C° 2 mm 1 mps 731 mmHg 95%
    03:00 +23°C° 1.2 mm 0 mps 731 mmHg 95%
    04:00 +23°C° 1.2 mm 0 mps 731 mmHg 95%
    05:00 +22°C° 1.2 mm 0 mps 731 mmHg 95%
    06:00 +23°C° 0.1 mm 0 mps 731 mmHg 93%
    07:00 +24°C° 0.1 mm 0 mps 732 mmHg 91%
    08:00 +25°C° 0.1 mm 0 mps 732 mmHg 90%
    09:00 +27°C° 0.4 mm 0 mps 732 mmHg 86%
    10:00 +30°C° 0.4 mm 1 mps 731 mmHg 82%
    11:00 +31°C° 0.4 mm 1 mps 731 mmHg 78%
    12:00 +32°C° 0.2 mm 1 mps 730 mmHg 75%
    13:00 +31°C° 0.2 mm 0 mps 730 mmHg 72%
    14:00 +31°C° 0.2 mm 0 mps 729 mmHg 69%
    15:00 +30°C° 0.6 mm 0 mps 729 mmHg 73%
    16:00 +29°C° 0.6 mm 0 mps 729 mmHg 78%
    17:00 +30°C° 0.6 mm 1 mps 729 mmHg 82%
    18:00 +29°C° 1.5 mm 1 mps 730 mmHg 85%
    19:00 +28°C° 1.5 mm 1 mps 730 mmHg 88%
    20:00 +26°C° 1.5 mm 1 mps 731 mmHg 92%
    21:00 +26°C° 1.1 mm 1 mps 731 mmHg 92%
    22:00 +24°C° 1.1 mm 0 mps 731 mmHg 93%
    23:00 +24°C° 1.1 mm 0 mps 731 mmHg 94%

    26 September, Thursday

    Time Temperature Precipitation Wind Pressure Humidity
    00:00 +23°C° 0.2 mm 0 mps 731 mmHg 94%
    01:00 +23°C° 0.2 mm 0 mps 731 mmHg 95%
    02:00 +23°C° 0.2 mm 0 mps 731 mmHg 96%
    03:00 +23°C° 0 mm 0 mps 731 mmHg 96%
    04:00 +23°C° 0 mm 0 mps 731 mmHg 96%
    05:00 +22°C° 0 mm 0 mps 731 mmHg 96%
    06:00 +23°C° 0 mm 0 mps 731 mmHg 94%
    07:00 +24°C° 0 mm 0 mps 731 mmHg 91%
    08:00 +26°C° 0 mm 0 mps 731 mmHg 89%
    09:00 +29°C° 0 mm 1 mps 731 mmHg 84%
    10:00 +30°C° 0 mm 1 mps 730 mmHg 79%
    11:00 +32°C° 0 mm 1 mps 730 mmHg 73%
    12:00 +32°C° 0.1 mm 1 mps 729 mmHg 71%
    13:00 +33°C° 0.1 mm 1 mps 728 mmHg 68%
    14:00 +32°C° 0.1 mm 0 mps 727 mmHg 66%
    15:00 +31°C° 0.1 mm 0 mps 727 mmHg 71%
    16:00 +30°C° 0.1 mm 0 mps 727 mmHg 75%
    17:00 +29°C° 0.1 mm 0 mps 727 mmHg 79%
    18:00 +28°C° 0.1 mm 0 mps 728 mmHg 82%
    19:00 +26°C° 0.1 mm 0 mps 728 mmHg 84%
    20:00 +25°C° 0.1 mm 0 mps 729 mmHg 86%
    21:00 +25°C° 0.2 mm 0 mps 729 mmHg 88%
    22:00 +25°C° 0.2 mm 0 mps 729 mmHg 89%
    23:00 +24°C° 0.2 mm 0 mps 729 mmHg 91%

    27 September, Friday

    Time Temperature Precipitation Wind Pressure Humidity
    00:00 +24°C° 0.4 mm 0 mps 729 mmHg 91%
    01:00 +24°C° 0.4 mm 0 mps 729 mmHg 92%
    02:00 +24°C° 0.4 mm 0 mps 728 mmHg 92%
    03:00 +24°C° 0.2 mm 0 mps 728 mmHg 93%
    04:00 +24°C° 0.2 mm 0 mps 728 mmHg 93%
    05:00 +24°C° 0.2 mm 0 mps 728 mmHg 94%
    06:00 +25°C° 0 mm 0 mps 729 mmHg 91%
    07:00 +25°C° 0 mm 0 mps 729 mmHg 89%
    08:00 +26°C° 0 mm 0 mps 729 mmHg 86%
    09:00 +27°C° 0.2 mm 0 mps 729 mmHg 83%
    10:00 +28°C° 0.2 mm 0 mps 729 mmHg 80%
    11:00 +31°C° 0.2 mm 1 mps 728 mmHg 77%
    12:00 +32°C° 0.1 mm 1 mps 727 mmHg 75%
    13:00 +30°C° 0.1 mm 0 mps 727 mmHg 73%
    14:00 +31°C° 0.1 mm 0 mps 726 mmHg 71%
    15:00 +30°C° 0.1 mm 0 mps 726 mmHg 74%
    16:00 +30°C° 0.1 mm 0 mps 726 mmHg 78%
    17:00 +29°C° 0.1 mm 0 mps 726 mmHg 81%
    18:00 +28°C° 0.3 mm 0 mps 726 mmHg 83%
    19:00 +27°C° 0.3 mm 0 mps 727 mmHg 84%
    20:00 +26°C° 0.3 mm 0 mps 728 mmHg 86%
    21:00 +27°C° 1.7 mm 1 mps 728 mmHg 88%
    22:00 +27°C° 1.7 mm 1 mps 728 mmHg 90%
    23:00 +26°C° 1.7 mm 1 mps 728 mmHg 93%
    Show more